Hourly Data Report for November 20, 2017

TORONTO CITY
ONTARIO

43°40'00.000" N
79°24'00.000" W
112.50 m
6158355
71508
XTO

Download Data

Hourly Data (November 2017)
Hourly Data Report for November 20, 2017
TIME
LST
Temp Definition
°C
Dew Point Definition
°C
Rel Hum Definition
%
Precip. Amount Definition
mm

Wind Dir Definition
10's deg

Wind Spd Definition
km/h
Visibility Definition
km
Stn Press Definition
kPa
Hmdx Definition


Wind Chill Definition


Weather Definition


00:00 -0.4 -5.2 70 0.0 LegendMM LegendMM   99.73     LegendNANA
01:00 0.3 -5.3 66 0.0 LegendMM LegendMM   99.77     LegendNANA
02:00 0.3 -5.1 67 0.0 LegendMM LegendMM   99.80     LegendNANA
03:00 0.3 -5.3 66 0.0 LegendMM LegendMM   99.89     LegendNANA
04:00 0.1 -6.0 63 0.0 LegendMM LegendMM   99.89     LegendNANA
05:00 0.3 -6.0 63 0.0 LegendMM LegendMM   99.91     LegendNANA
06:00 0.5 -5.8 63 0.0 LegendMM LegendMM   99.96     LegendNANA
07:00 0.7 -5.6 63 0.0 LegendMM LegendMM   99.99     LegendNANA
08:00 0.3 -5.4 65 0.0 LegendMM LegendMM   100.05     LegendNANA
09:00 0.6 -4.7 68 0.0 LegendMM LegendMM   100.09     LegendNANA
10:00 1.8 -4.6 62 0.0 LegendMM LegendMM   100.11     LegendNANA
11:00 2.7 -4.0 62 0.0 LegendMM LegendMM   100.09     LegendNANA
12:00 3.1 -2.9 65 0.0 LegendMM LegendMM   100.03     LegendNANA
13:00 3.8 -2.0 66 0.0 LegendMM LegendMM   99.95     LegendNANA
14:00 5.1 -1.7 62 0.0 LegendMM LegendMM   99.91     LegendNANA
15:00 5.6 -1.4 61 0.0 LegendMM LegendMM   99.86     LegendNANA
16:00 6.2 -1.6 57 0.0 LegendMM LegendMM   99.83     LegendNANA
17:00 6.2 0.1 65 0.0 LegendMM LegendMM   99.82     LegendNANA
18:00 5.8 1.3 72 0.0 LegendMM LegendMM   99.80     LegendNANA
19:00 5.8 1.3 73 0.0 LegendMM LegendMM   99.80     LegendNANA
20:00 5.3 0.8 73 0.0 LegendMM LegendMM   99.78     LegendNANA
21:00 5.5 1.1 73 0.0 LegendMM LegendMM   99.72     LegendNANA
22:00 5.9 0.0 66 0.0 LegendMM LegendMM   99.65     LegendNANA
23:00 5.9 0.8 70 0.0 LegendMM LegendMM   99.60     LegendNANA

Notes on Data Quality.

Legend

  • E = Estimated
  • M = Missing
  • NA = Not Available*
  • [empty] = Indicates an unobserved value
Date modified: